UNISAT 3

Satellite information

Favourite Embed

Satellite Type and Status

PAYLOADIN ORBIT

Key statistics

Satellite UNISAT 3 at a glance.

Uptime

7678

Days in orbit

Revolutions

≈ 14.5

Per day

Orbit

SSO

Sun Synchronous Orbit

Inclination

98.7

Latest

Satellite identification and parameters

Extended collection of information and parameters for UNISAT 3.

Object identification

Identified? True

Debris? False

Object name: UNISAT 3

International designator: 2004-025H

Object number (NORAD): 28373

Object ID (CCSDS): 28373

Country: ITALY (IT)

Current information (Y/N): Y

RCS size: MEDIUM

Orbital parameters

Period: 99.409 minutes

Inclination: 98.6844 deg

SMA: 7108.479 km

Apoapsis: 776.489 km

Periapsis: 684.2 km

RAAN: 182.4662 deg

Eccentricy: 0.0064915

Argument of periapsis: 316.3826 deg

Mean anomaly: 43.2245 deg

Mean motion: 14.48564028 rev/day

Mean motion (dot): 0.00000382 rev/day2

B* drag term: 0.00011208 1/REarth

Two-line elements (TLE)

Creation date: July 6, 2025, 10:46 p.m.

Reference frame: TEME

Reference center: EARTH

Epoch: July 6, 2025, 8:24 p.m. UTC

TLE line 0: 0 UNISAT 3

TLE line 1: 1 28373U 04025H 25187.85036136 .00000382 00000-0 11208-3 0 9997

TLE line 2: 2 28373 98.6844 182.4662 0064915 316.3826 43.2245 14.48564028109054

Live tracking on map

Real-time ground track for satellite UNISAT 3.

In-orbit conjunctions

There are no conjunctions computed for UNISAT 3, at the moment. Check back to stay up to date, as we update our databases every day.

Go to all conjunctions

Associated space launch

AprizeSat, is a constellation of small Low-Earth-Orbit satellites (64 satellites planned) to achieve a global communication system of data transmission and fixed and mobile asset tracking and monitoring (GMPCS).

UNISAT 3 was lifted into orbit during the mission ‘Dnepr | Aprizesat-2’, on board a Dnepr space rocket.

The launch took place on June 29, 2004, 6:30 a.m. from 109/95.

For more information about the launch, click the button.

Launch to space Dnepr | Aprizesat-2
Dnepr | Aprizesat-2

Agency: N/A

Status: Launch Successful

Launch date: June 29, 2004, 6:30 a.m. UTC

Rocket: Dnepr

Launch pad: 109/95

Location: Baikonur Cosmodrome, Republic of Kazakhstan

...

Latest news about this satellite

There are no fresh news available about this satellite. Check back as we update our databases every day.


Newsletter sign-up

Weekly statistics, charts and insights to help you stay on top of the space industry.